"2016-04-18 00:00:00",1556571,9.55,58.36,6.427,1.225,6.362,99.93774,-0.858,0.408,79.35,0,109.7,13.33,-0.11,20.4
"2016-04-18 00:00:30",1556572,9.45,61.75,6.489,1.248,6.71,99.93378,-0.868,0.392,79.11,0,109.7,13.33,-0.12,23.8
"2016-04-18 00:01:00",1556573,9.55,64.17,5.895,1.283,6.541,99.93294,-0.871,0.409,79.08,0,109.7,13.33,-0.12,26.2
"2016-04-18 00:01:30",1556574,9.82,62.87,6.84,1.223,6.484,99.93322,-0.87,0.42,79.17,0,109.7,13.33,-0.12,24.9
"2016-04-18 00:02:00",1556575,9.96,65.07,6.172,1.159,6.855,99.93378,-0.868,0.396,79.34,0,109.7,13.33,-0.12,27.1
"2016-04-18 00:02:30",1556576,9.62,64.23,6.463,1.222,6.544,99.93491,-0.866,0.423,79.53,0,109.7,13.33,-0.12,26.2
"2016-04-18 00:03:00",1556577,10.03,64.67,6.48,1.227,6.488,99.93633,-0.862,0.409,79.8,0,109.7,13.33,-0.11,26.7
"2016-04-18 00:03:30",1556578,9.9,66.1,6.016,1.245,6.498,99.93577,-0.863,0.427,80,0,109.7,13.33,-0.11,28.1
"2016-04-18 00:04:00",1556579,9.69,63.2,6.695,1.19,6.387,99.9352,-0.865,0.41,80,0,109.7,13.33,-0.12,25.2
"2016-04-18 00:04:30",1556580,9.14,62.18,6.49,1.24,6.463,99.9335,-0.869,0.395,80,0,109.7,13.33,-0.12,24.2
"2016-04-18 00:05:00",1556581,9.46,64.22,6.982,1.239,6.679,99.93378,-0.868,0.418,79.9,0,109.7,13.32,-0.12,26.2
"2016-04-18 00:05:30",1556582,9.46,65.01,6.126,1.18,6.75,99.93294,-0.871,0.422,79.69,0,109.7,13.32,-0.12,27.0
"2016-04-18 00:06:00",1556583,9.09,64.59,6.08,1.259,6.304,99.93265,-0.871,0.413,79.59,0,109.7,13.32,-0.12,26.6
"2016-04-18 00:06:30",1556584,9.2,64.78,6.491,1.262,6.571,99.93746,-0.859,0.426,79.5,0,109.7,13.32,-0.11,26.8
"2016-04-18 00:07:00",1556585,8.89,64.99,6.379,1.199,6.327,99.93972,-0.853,0.411,79.46,0,109.7,13.32,-0.10,27.0
"2016-04-18 00:07:30",1556586,8.79,66.28,7.007,1.283,6.582,99.93774,-0.858,0.39,79.43,0,109.7,13.32,-0.11,28.3
"2016-04-18 00:08:00",1556587,8.9,63.63,6.487,1.198,6.621,99.93944,-0.854,0.437,79.37,0,109.7,13.32,-0.10,25.6
"2016-04-18 00:08:30",1556588,9.2,68.32,6.436,1.222,6.366,99.94453,-0.841,0.436,79.51,0,109.7,13.32,-0.09,30.3
"2016-04-18 00:09:00",1556589,9.26,69.6,6.479,1.183,6.344,99.94509,-0.84,0.399,79.43,0,109.7,13.32,-0.09,31.6
"2016-04-18 00:09:30",1556590,8.82,68.33,6.157,1.236,6.168,99.94566,-0.838,0.409,79.42,0,109.7,13.32,-0.09,30.3
"2016-04-18 00:10:00",1556591,8.43,67.25,6.361,1.261,6.396,99.94707,-0.835,0.417,79.61,0,109.7,13.33,-0.09,29.2
"2016-04-18 00:10:30",1556592,8.79,68.22,6.449,1.215,6.562,99.94566,-0.838,0.444,79.79,0,109.7,13.33,-0.09,30.2
"2016-04-18 00:11:00",1556593,8.61,70.54,6.88,1.22,6.442,99.94934,-0.829,0.435,79.72,0,109.7,13.33,-0.08,32.5
"2016-04-18 00:11:30",1556594,8.33,66.93,6.214,1.235,6.146,99.94934,-0.829,0.419,79.63,0,109.7,13.33,-0.08,28.9
"2016-04-18 00:12:00",1556595,8.55,67.36,5.872,1.184,6.12,99.95188,-0.822,0.426,79.88,0,109.7,13.33,-0.07,29.4
"2016-04-18 00:12:30",1556596,7.989,66.6,6.901,1.225,6.345,99.95329,-0.819,0.433,80.2,0,109.7,13.33,-0.07,28.6
"2016-04-18 00:13:00",1556597,7.41,64.85,6.258,1.391,5.682,99.95188,-0.822,0.401,80.4,0,109.7,13.33,-0.07,26.8
"2016-04-18 00:13:30",1556598,7.068,66.34,6.738,1.3,5.013,99.95274,-0.82,0.358,80.5,0,109.7,13.33,-0.07,28.3
"2016-04-18 00:14:00",1556599,7.79,68.06,6.472,1.382,5.981,99.95471,-0.815,0.46,80.8,0,109.7,13.33,-0.07,30.1
"2016-04-18 00:14:30",1556600,7.416,64.28,6.894,1.314,4.995,99.95613,-0.811,0.34,80.8,0,109.7,13.34,-0.06,26.3
"2016-04-18 00:15:00",1556601,7.854,66.22,6.93,1.37,5.383,99.95669,-0.81,0.359,81,0,109.7,13.34,-0.06,28.2
"2016-04-18 00:15:30",1556602,8.52,66.67,6.76,1.334,5.969,99.95528,-0.814,0.434,81.2,0,109.7,13.34,-0.06,28.7
"2016-04-18 00:16:00",1556603,8.51,66.3,6.87,1.333,6.214,99.95726,-0.809,0.433,81.2,0,109.7,13.34,-0.06,28.3
"2016-04-18 00:16:30",1556604,8.87,67.07,6.43,1.236,6.598,99.95698,-0.809,0.468,81.2,0,109.7,13.34,-0.06,29.1
"2016-04-18 00:17:00",1556605,8.64,63.97,6.493,1.205,6.622,99.95613,-0.811,0.459,81.2,0,109.7,13.34,-0.06,26.0
"2016-04-18 00:17:30",1556606,8.44,67.2,6.398,1.292,6.692,99.95782,-0.807,0.431,81.2,0,109.7,13.34,-0.06,29.2
"2016-04-18 00:18:00",1556607,8.78,68.74,6.195,1.232,6.405,99.95753,-0.808,0.478,81.1,0,109.7,13.34,-0.06,30.7
"2016-04-18 00:18:30",1556608,8.82,68.39,6.635,1.184,6.495,99.95782,-0.807,0.453,81.2,0,109.7,13.34,-0.06,30.4
"2016-04-18 00:19:00",1556609,8.6,67.22,6.305,1.258,6.321,99.95811,-0.806,0.449,81.2,0,109.7,13.34,-0.06,29.2
"2016-04-18 00:19:30",1556610,8.21,67.24,6.36,1.192,6.207,99.95895,-0.804,0.419,81.3,0,109.7,13.34,-0.06,29.2
"2016-04-18 00:20:00",1556611,8.1,68.26,6.621,1.28,6.249,99.95556,-0.813,0.441,81.4,0,109.7,13.34,-0.06,30.3
"2016-04-18 00:20:30",1556612,8.39,64.89,6.729,1.226,6.116,99.95329,-0.819,0.441,81.4,0,109.7,13.34,-0.07,26.9
"2016-04-18 00:21:00",1556613,7.959,64.83,7.194,1.229,6.214,99.9448,-0.84,0.442,81.5,0,109.7,13.34,-0.09,26.8
"2016-04-18 00:21:30",1556614,7.94,67.61,6.428,1.248,6.391,99.94112,-0.85,0.423,81.5,0,109.7,13.33,-0.10,29.6
"2016-04-18 00:22:00",1556615,7.902,65.24,6.503,1.221,5.82,99.94254,-0.846,0.42,81.5,0,109.7,13.33,-0.10,27.2
"2016-04-18 00:22:30",1556616,7.6,68.02,7.093,1.352,5.451,99.94338,-0.844,0.304,81.4,0,109.7,13.33,-0.09,30.0
"2016-04-18 00:23:00",1556617,7.234,67.74,7.089,1.408,5.458,99.94028,-0.852,0.368,81.3,0,109.7,13.33,-0.10,29.7
"2016-04-18 00:23:30",1556618,6.709,63.05,5.96,1.285,4.045,99.93575,-0.863,0.295,81.1,0,109.7,13.34,-0.11,25.0
"2016-04-18 00:24:00",1556619,7.413,66.01,6.867,1.367,5.565,99.93546,-0.864,0.407,81.1,0,109.7,13.33,-0.12,28.0
"2016-04-18 00:24:30",1556620,8.33,68.57,6.513,1.223,6.449,99.9315,-0.874,0.353,81,0,109.7,13.33,-0.13,30.6
"2016-04-18 00:25:00",1556621,8.13,66.63,6.657,1.35,6.256,99.93122,-0.875,0.39,81,0,109.7,13.34,-0.13,28.6
"2016-04-18 00:25:30",1556622,8.5,66.32,6.497,1.232,6.352,99.9315,-0.874,0.377,81,0,109.7,13.33,-0.13,28.3
"2016-04-18 00:26:00",1556623,8.27,65.54,6.628,1.241,6.665,99.93008,-0.878,0.392,81.1,0,109.7,13.34,-0.13,27.5
"2016-04-18 00:26:30",1556624,8.01,68.39,6,1.28,6.628,99.93065,-0.876,0.425,81.2,0,109.7,13.34,-0.13,30.4
"2016-04-18 00:27:00",1556625,8.13,68.79,6.634,1.167,6.632,99.9315,-0.874,0.4,81.2,0,109.7,13.34,-0.13,30.8
"2016-04-18 00:27:30",1556626,8.35,68.43,6.174,1.233,6.169,99.93122,-0.875,0.41,81.2,0,109.7,13.34,-0.13,30.4
"2016-04-18 00:28:00",1556627,8.17,68.92,6.702,1.21,6.236,99.93065,-0.876,0.393,81.2,0,109.7,13.34,-0.13,30.9
"2016-04-18 00:28:30",1556628,7.745,67.83,6.361,1.253,6.357,99.93178,-0.873,0.363,81.1,0,109.7,13.34,-0.12,29.8
"2016-04-18 00:29:00",1556629,7.345,67.09,6.584,1.362,6.09,99.93122,-0.875,0.413,81.1,0,109.7,13.34,-0.13,29.1
"2016-04-18 00:29:30",1556630,7.417,65.48,6.405,1.361,5.821,99.93206,-0.873,0.366,81,0,109.7,13.34,-0.12,27.5
"2016-04-18 00:30:00",1556631,7.197,61.64,7.759,1.367,5.403,99.93178,-0.873,0.289,80.8,0,109.7,13.34,-0.12,23.6
"2016-04-18 00:30:30",1556632,6.488,62.32,6.969,1.284,4.477,99.93122,-0.875,0.231,80.7,0,109.7,13.34,-0.13,24.3
"2016-04-18 00:31:00",1556633,7.154,68,6.932,1.304,6.222,99.93093,-0.876,0.371,80.7,0,109.7,13.34,-0.13,30.0
"2016-04-18 00:31:30",1556634,6.521,63.79,6.739,1.339,4.664,99.93122,-0.875,0.256,80.7,0,109.7,13.35,-0.13,25.8
"2016-04-18 00:32:00",1556635,7.363,65.06,6.951,1.278,6.587,99.9315,-0.874,0.35,80.8,0,109.7,13.35,-0.13,27.1
"2016-04-18 00:32:30",1556636,7.443,64.48,6.412,1.302,6.144,99.92923,-0.88,0.348,80.8,0,109.7,13.35,-0.13,26.5
"2016-04-18 00:33:00",1556637,7.601,63.81,6.679,1.276,6.471,99.92867,-0.881,0.347,80.8,0,109.7,13.35,-0.13,25.8
"2016-04-18 00:33:30",1556638,6.73,59.73,7.424,1.349,5.889,99.92952,-0.879,0.349,80.8,0,109.7,13.35,-0.13,21.7
"2016-04-18 00:34:00",1556639,7.208,61.58,6.826,1.279,6.352,99.9315,-0.874,0.362,80.9,0,109.7,13.35,-0.13,23.6
"2016-04-18 00:34:30",1556640,6.833,58.24,6.551,1.42,5.101,99.92867,-0.881,0.251,80.9,0,109.7,13.35,-0.13,20.2
"2016-04-18 00:35:00",1556641,6.513,58.06,6.584,1.28,5.055,99.92725,-0.885,0.304,80.9,0,109.7,13.35,-0.14,20.1
"2016-04-18 00:35:30",1556642,6.483,56.36,6.472,1.308,4.924,99.92498,-0.891,0.281,80.9,0,109.7,13.35,-0.14,18.4
"2016-04-18 00:36:00",1556643,7.243,60.06,6.968,1.308,6.32,99.92442,-0.892,0.342,81,0,109.7,13.35,-0.14,22.1
"2016-04-18 00:36:30",1556644,7.123,59.36,6.622,1.276,6.458,99.92612,-0.888,0.349,81.1,0,109.7,13.35,-0.14,21.4
"2016-04-18 00:37:00",1556645,6.956,59.45,6.494,1.147,6.361,99.92867,-0.881,0.367,81.3,0,109.7,13.35,-0.13,21.5
"2016-04-18 00:37:30",1556646,6.786,61.32,6.791,1.283,6.491,99.9298,-0.879,0.373,81.5,0,109.7,13.35,-0.13,23.3
"2016-04-18 00:38:00",1556647,6.66,63.43,6.258,1.251,5.705,99.93178,-0.873,0.391,81.6,0,109.7,13.35,-0.12,25.4
"2016-04-18 00:38:30",1556648,6.36,59.25,7.409,1.361,5.684,99.9315,-0.874,0.347,81.7,0,109.7,13.34,-0.13,21.2
"2016-04-18 00:39:00",1556649,6.182,55.53,7.307,1.378,5.094,99.93206,-0.873,0.267,81.8,0,109.7,13.34,-0.12,17.5
"2016-04-18 00:39:30",1556650,5.461,54.05,6.516,1.379,4.329,99.93206,-0.873,0.287,82,0,109.7,13.34,-0.12,16.0
"2016-04-18 00:40:00",1556651,6.265,60.78,6.89,1.25,5.955,99.93206,-0.873,0.292,82.2,0,109.7,13.34,-0.12,22.8
"2016-04-18 00:40:30",1556652,6.53,56.2,7.73,1.339,5.394,99.93206,-0.873,0.283,82.4,0,109.7,13.34,-0.12,18.2
"2016-04-18 00:41:00",1556653,6.319,55.69,7.417,1.347,6.127,99.93206,-0.873,0.372,82.6,0,109.7,13.34,-0.12,17.7
"2016-04-18 00:41:30",1556654,6.515,58.92,6.944,1.313,6.026,99.93206,-0.873,0.369,82.8,0,109.7,13.34,-0.12,20.9
"2016-04-18 00:42:00",1556655,6.262,64.9,7.282,1.282,6.673,99.93206,-0.873,0.392,82.9,0,109.7,13.34,-0.12,26.9
"2016-04-18 00:42:30",1556656,6.562,63.03,6.286,1.255,6.647,99.93206,-0.873,0.423,83.1,0,109.7,13.34,-0.12,25.0
"2016-04-18 00:43:00",1556657,7.388,61.01,7.107,1.279,6.257,99.93206,-0.873,0.433,83.2,0,109.7,13.34,-0.12,23.0
"2016-04-18 00:43:30",1556658,7.159,56.34,7.099,1.268,6.279,99.93206,-0.873,0.432,83.3,0,109.7,13.34,-0.12,18.3
"2016-04-18 00:44:00",1556659,7.914,62.01,5.949,1.169,6.101,99.93206,-0.873,0.421,83.3,0,109.7,13.35,-0.12,24.0
"2016-04-18 00:44:30",1556660,7.841,61.2,7.242,1.284,6.014,99.93206,-0.873,0.409,83.2,0,109.7,13.35,-0.12,23.2
"2016-04-18 00:45:00",1556661,7.647,62.89,6.707,1.269,6.296,99.93206,-0.873,0.404,83.2,0,109.7,13.35,-0.12,24.9
"2016-04-18 00:45:30",1556662,8.04,61.79,6.416,1.22,6.259,99.93178,-0.873,0.422,83.1,0,109.7,13.35,-0.12,23.8
"2016-04-18 00:46:00",1556663,7.705,60.03,6.46,1.213,6.084,99.93093,-0.876,0.396,83,0,109.7,13.35,-0.13,22.0
"2016-04-18 00:46:30",1556664,8.03,61.64,6.584,1.153,6.441,99.92527,-0.89,0.38,82.9,0,109.7,13.35,-0.14,23.6
"2016-04-18 00:47:00",1556665,7.75,67.34,6.754,1.283,6.03,99.92103,-0.901,0.391,82.8,0,109.7,13.35,-0.15,29.3
"2016-04-18 00:47:30",1556666,7.412,60.94,6.577,1.167,6.113,99.91707,-0.911,0.358,82.7,0,109.7,13.35,-0.16,22.9
"2016-04-18 00:48:00",1556667,6.869,62.67,6.072,1.255,6.134,99.91592,-0.914,0.394,82.7,0,109.7,13.35,-0.17,24.7
"2016-04-18 00:48:30",1556668,7,60.01,6.62,1.243,5.804,99.91537,-0.915,0.371,82.6,0,109.7,13.35,-0.17,22.0
"2016-04-18 00:49:00",1556669,6.939,60.36,6.514,1.273,6.241,99.91395,-0.919,0.331,82.5,0,109.7,13.35,-0.17,22.4
"2016-04-18 00:49:30",1556670,6.328,56.59,7.785,1.366,4.811,99.9131,-0.921,0.254,82.4,0,109.7,13.35,-0.17,18.6
"2016-04-18 00:50:00",1556671,6.356,55.93,6.986,1.402,4.182,99.91225,-0.923,0.202,82.3,0,109.7,13.35,-0.17,17.9
"2016-04-18 00:50:30",1556672,6.625,57.07,8.14,1.208,4.887,99.91225,-0.923,0.26,82.4,0,109.7,13.35,-0.17,19.1
"2016-04-18 00:51:00",1556673,7.091,63.99,6.722,1.312,6.125,99.91055,-0.928,0.32,82.5,0,109.7,13.35,-0.18,26.0
"2016-04-18 00:51:30",1556674,7.073,59.43,7.835,1.35,6.339,99.9097,-0.93,0.356,82.5,0,109.7,13.35,-0.18,21.4
"2016-04-18 00:52:00",1556675,6.837,53.69,6.703,1.347,6.135,99.91225,-0.923,0.329,82.5,0,109.7,13.35,-0.17,15.7
"2016-04-18 00:52:30",1556676,6.881,57.62,6.985,1.283,6.288,99.9097,-0.93,0.321,82.6,0,109.7,13.35,-0.18,19.6
"2016-04-18 00:53:00",1556677,6.543,57.31,6.956,1.326,6.301,99.9097,-0.93,0.333,82.7,0,109.7,13.35,-0.18,19.3
"2016-04-18 00:53:30",1556678,6.927,53.85,6.763,1.377,5.955,99.9097,-0.93,0.36,82.7,0,109.7,13.35,-0.18,15.8
"2016-04-18 00:54:00",1556679,6.65,55.41,6.959,1.335,5.717,99.91055,-0.928,0.356,82.7,0,109.7,13.35,-0.18,17.4
"2016-04-18 00:54:30",1556680,6.651,54.38,6.961,1.461,5.106,99.9063,-0.938,0.234,82.6,0,109.7,13.35,-0.19,16.4
"2016-04-18 00:55:00",1556681,6.922,52.3,7.323,1.352,5.14,99.90885,-0.932,0.296,82.8,0,109.7,13.35,-0.18,14.3
"2016-04-18 00:55:30",1556682,6.859,54.03,6.835,1.343,6.129,99.90715,-0.936,0.351,82.8,0,109.7,13.35,-0.19,16.0
"2016-04-18 00:56:00",1556683,7.09,55.48,7.494,1.275,6.393,99.90885,-0.932,0.341,82.9,0,109.7,13.34,-0.18,17.5
"2016-04-18 00:56:30",1556684,7.077,60.63,7.397,1.361,6.482,99.90942,-0.93,0.349,83,0,109.7,13.35,-0.18,22.6
"2016-04-18 00:57:00",1556685,7.383,59.51,6.685,1.257,6.49,99.90744,-0.936,0.371,83.1,0,109.7,13.35,-0.19,21.5
"2016-04-18 00:57:30",1556686,7.322,56.11,6.55,1.16,6.248,99.90432,-0.943,0.351,83.1,0,109.7,13.34,-0.19,18.1
"2016-04-18 00:58:00",1556687,7.099,54.38,6.557,1.231,6.121,99.90601,-0.939,0.331,83,0,109.7,13.34,-0.19,16.4
"2016-04-18 00:58:30",1556688,7.23,57.54,6.174,1.217,6.462,99.90574,-0.94,0.358,83,0,109.7,13.34,-0.19,19.5
"2016-04-18 00:59:00",1556689,7.367,62.12,6.393,1.184,6.613,99.90431,-0.943,0.367,83,0,109.7,13.34,-0.19,24.1
"2016-04-18 00:59:30",1556690,7.378,62.13,6.277,1.163,5.95,99.90459,-0.943,0.367,83,0,109.7,13.34,-0.19,24.1
"2016-04-18 01:00:00",1556691,7.127,58.65,6.749,1.253,5.991,99.90376,-0.945,0.323,82.9,0,109.7,13.35,-0.20,20.7
"2016-04-18 01:00:30",1556692,6.939,57.62,6.722,1.269,5.742,99.90261,-0.948,0.304,82.8,0,109.7,13.35,-0.20,19.6
"2016-04-18 01:01:00",1556693,5.868,52.64,6.244,1.257,4.209,99.90261,-0.948,0.246,82.7,0,109.7,13.35,-0.20,14.6
"2016-04-18 01:01:30",1556694,5.363,48.8,6.482,1.223,3.838,99.90601,-0.939,0.196,82.7,0,109.7,13.35,-0.19,10.8
"2016-04-18 01:02:00",1556695,6.367,49.5,7.872,1.368,5.803,99.90573,-0.94,0.269,82.7,0,109.7,13.35,-0.19,11.5
"2016-04-18 01:02:30",1556696,5.641,48.03,8.85,1.696,5.565,99.90742,-0.936,0.303,82.9,0,109.7,13.35,-0.19,10.0
"2016-04-18 01:03:00",1556697,4.619,43.29,6.931,1.305,6.161,99.90771,-0.935,0.302,83.1,0,109.7,13.35,-0.19,5.3
"2016-04-18 01:03:30",1556698,3.249,35.44,6.192,1.374,5.06,99.91111,-0.926,0.295,83.2,0,109.7,13.35,-0.18,357.4
"2016-04-18 01:04:00",1556699,2.538,71.55,27.64,1.571,4.072,99.91224,-0.923,0.203,83.2,0,109.7,13.35,-0.17,33.6
"2016-04-18 01:04:30",1556700,2.978,107.9,7.078,1.222,3.513,99.91649,-0.912,0.177,83.4,0,109.7,13.35,-0.16,69.9
"2016-04-18 01:05:00",1556701,2.561,90.1,8.52,1.097,3.588,99.9213,-0.9,0.156,83.5,0,109.7,13.36,-0.15,52.1
"2016-04-18 01:05:30",1556702,3.304,74.62,9.39,1.704,4.934,99.91988,-0.904,0.283,83.9,0,109.7,13.36,-0.15,36.6
"2016-04-18 01:06:00",1556703,3.923,69.5,8.25,1.37,5.959,99.92611,-0.888,0.313,84,0,109.7,13.36,-0.14,31.5
"2016-04-18 01:06:30",1556704,4.135,74.47,11.52,1.732,5.039,99.92299,-0.896,0.272,84.1,0,109.7,13.36,-0.15,36.5
"2016-04-18 01:07:00",1556705,4.345,76.42,6.855,1.399,5.262,99.92384,-0.894,0.272,84.2,0,109.7,13.36,-0.14,38.4
"2016-04-18 01:07:30",1556706,3.975,74.71,6.675,1.444,4.842,99.92243,-0.897,0.279,84.3,0,109.7,13.36,-0.15,36.7
"2016-04-18 01:08:00",1556707,3.221,66.61,7.487,1.287,3.827,99.92271,-0.897,0.253,84.3,0,109.7,13.36,-0.15,28.6
"2016-04-18 01:08:30",1556708,3.294,62.79,9.5,1.337,4.556,99.92356,-0.894,0.33,84.4,0,109.7,13.36,-0.15,24.8
"2016-04-18 01:09:00",1556709,2.9,41.83,9.96,1.261,3.688,99.91904,-0.906,0.245,84.4,0,109.7,13.36,-0.16,3.8
"2016-04-18 01:09:30",1556710,3.482,57.14,8.45,1.376,5.257,99.92214,-0.898,0.303,84.5,0,109.7,13.36,-0.15,19.1
"2016-04-18 01:10:00",1556711,3.578,54.69,7.425,1.498,4.551,99.92044,-0.902,0.331,84.6,0,109.7,13.36,-0.15,16.7
"2016-04-18 01:10:30",1556712,4.124,55.06,6.927,1.329,4.497,99.91959,-0.905,0.321,84.6,0,109.7,13.36,-0.16,17.1
"2016-04-18 01:11:00",1556713,5.243,50.64,8.83,1.367,4.26,99.91648,-0.912,0.251,84.6,0,109.7,13.36,-0.16,12.6
"2016-04-18 01:11:30",1556714,6.328,53.64,8.02,1.276,6.069,99.91506,-0.916,0.381,84.7,0,109.7,13.36,-0.17,15.6
"2016-04-18 01:12:00",1556715,6.204,58.64,8.5,1.374,5.981,99.91309,-0.921,0.384,84.7,0,109.7,13.35,-0.17,20.6
"2016-04-18 01:12:30",1556716,6.184,61.64,6.36,1.272,6.189,99.9128,-0.922,0.349,84.7,0,109.7,13.35,-0.17,23.6
"2016-04-18 01:13:00",1556717,6.576,61.42,7.158,1.349,6.13,99.90657,-0.938,0.338,84.6,0,109.7,13.35,-0.19,23.4
"2016-04-18 01:13:30",1556718,5.591,59.51,6.152,1.38,5.065,99.89694,-0.962,0.252,84.4,0,109.7,13.35,-0.21,21.5
"2016-04-18 01:14:00",1556719,6.041,62.03,6.631,1.289,5.5,99.89298,-0.972,0.214,84.3,0,109.7,13.35,-0.22,24.0
"2016-04-18 01:14:30",1556720,6.19,58.12,6.365,1.468,5.732,99.88364,-0.996,0.247,84.2,0,109.7,13.35,-0.25,20.1
"2016-04-18 01:15:00",1556721,6.495,57.21,6.872,1.297,6.068,99.88194,-1.001,0.292,84.2,0,109.7,13.35,-0.25,19.2
"2016-04-18 01:15:30",1556722,6.477,51.73,7.357,1.418,6.06,99.8811,-1.003,0.265,84.1,0,109.7,13.35,-0.25,13.7
"2016-04-18 01:16:00",1556723,6.637,55.95,7.307,1.316,6.221,99.8811,-1.003,0.309,84.1,0,109.7,13.35,-0.25,18.0
"2016-04-18 01:16:30",1556724,6.41,59.91,8.06,1.35,6.457,99.8811,-1.003,0.297,84.1,0,109.7,13.35,-0.25,21.9
"2016-04-18 01:17:00",1556725,5.339,54.23,6.742,1.352,5.486,99.88081,-1.003,0.254,84.1,0,109.7,13.36,-0.25,16.2
"2016-04-18 01:17:30",1556726,4.861,46.14,8.96,1.343,5.191,99.88137,-1.002,0.249,84.2,0,109.7,13.36,-0.25,8.1
"2016-04-18 01:18:00",1556727,4.386,42.59,7.882,1.285,3.915,99.8811,-1.003,0.156,84.2,0,109.7,13.36,-0.25,4.6
"2016-04-18 01:18:30",1556728,4.919,46.3,7.439,1.462,5.899,99.88137,-1.002,0.297,84.3,0,109.7,13.36,-0.25,8.3
"2016-04-18 01:19:00",1556729,4.751,42.72,9.49,1.481,5.287,99.8825,-0.999,0.201,84.4,0,109.7,13.36,-0.25,4.7
"2016-04-18 01:19:30",1556730,4.147,43.54,8.6,1.456,5.472,99.8811,-1.003,0.246,84.5,0,109.7,13.36,-0.25,5.5
"2016-04-18 01:20:00",1556731,4.515,50.64,6.239,1.368,4.52,99.88307,-0.998,0.181,84.6,0,109.7,13.36,-0.25,12.6
"2016-04-18 01:20:30",1556732,5.437,48.95,9.63,1.411,5.633,99.88364,-0.996,0.258,84.7,0,109.7,13.36,-0.25,11.0
"2016-04-18 01:21:00",1556733,5.265,53.29,6.777,1.353,4.498,99.88335,-0.997,0.226,84.7,0,109.7,13.36,-0.25,15.3
"2016-04-18 01:21:30",1556734,6.043,52.18,6.665,1.474,5.222,99.88335,-0.997,0.185,84.8,0,109.7,13.36,-0.25,14.2
"2016-04-18 01:22:00",1556735,6.112,54.98,9.2,1.316,6.144,99.88505,-0.993,0.294,85,0,109.7,13.36,-0.24,17.0
"2016-04-18 01:22:30",1556736,6.847,49.51,6.656,1.323,6.358,99.88589,-0.99,0.283,85,0,109.7,13.36,-0.24,11.5
"2016-04-18 01:23:00",1556737,6.019,51.67,6.822,1.319,6.117,99.88505,-0.993,0.278,85,0,109.7,13.36,-0.24,13.7
"2016-04-18 01:23:30",1556738,4.617,49.42,8.33,1.765,5.057,99.8876,-0.986,0.197,85,0,109.7,13.36,-0.24,11.4
"2016-04-18 01:24:00",1556739,4.621,50.87,7.994,1.444,4.832,99.88789,-0.985,0.195,85.1,0,109.7,13.36,-0.24,12.9
"2016-04-18 01:24:30",1556740,4.717,45.46,6.824,1.322,4.19,99.88674,-0.988,0.131,85.1,0,109.7,13.36,-0.24,7.5
"2016-04-18 01:25:00",1556741,5.063,35.74,8.92,1.381,5.177,99.88618,-0.99,0.205,85.2,0,109.7,13.36,-0.24,357.7
"2016-04-18 01:25:30",1556742,4.447,25.21,12.12,1.8,5.103,99.88335,-0.997,0.193,85.2,0,109.7,13.36,-0.25,347.2
"2016-04-18 01:26:00",1556743,5.217,38.95,9.04,1.385,5.717,99.88108,-1.003,0.254,85.3,0,109.7,13.36,-0.25,1.0
"2016-04-18 01:26:30",1556744,6.162,42.98,8.26,1.511,5.951,99.87656,-1.014,0.249,85.4,0,109.7,13.36,-0.27,5.0
"2016-04-18 01:27:00",1556745,4.807,52.43,7.019,1.482,4.62,99.87486,-1.019,0.178,85.3,0,109.7,13.36,-0.27,14.4
"2016-04-18 01:27:30",1556746,4.51,43.16,12.6,1.353,5.154,99.87145,-1.027,0.161,85.3,0,109.7,13.36,-0.28,5.2
"2016-04-18 01:28:00",1556747,3.374,28.96,10.13,1.538,4.493,99.87089,-1.029,0.173,85.4,0,109.7,13.36,-0.28,351.0
"2016-04-18 01:28:30",1556748,3.799,33.79,7.788,1.451,5.091,99.87061,-1.029,0.162,85.5,0,109.8,13.36,-0.28,355.8
"2016-04-18 01:29:00",1556749,4.415,41.99,9.28,1.458,5.353,99.87089,-1.029,0.156,85.5,0,109.7,13.36,-0.28,4.0
"2016-04-18 01:29:30",1556750,5.65,52.11,10.96,1.476,5.477,99.87145,-1.027,0.228,85.6,0,109.6,13.35,-0.28,14.1
"2016-04-18 01:30:00",1556751,5.366,42.6,8.37,1.676,4.776,99.87032,-1.03,0.093,85.5,0,109.7,13.35,-0.28,4.6
"2016-04-18 01:30:30",1556752,5.873,43.89,9.56,1.656,5.752,99.8672,-1.038,0.263,85.7,0,109.7,13.36,-0.29,5.9
"2016-04-18 01:31:00",1556753,5.494,44.36,8.13,1.309,6.014,99.85843,-1.06,0.215,85.6,0,109.7,13.35,-0.31,6.4
"2016-04-18 01:31:30",1556754,5.498,42.47,7.78,1.615,5.901,99.85532,-1.068,0.197,85.6,0,109.7,13.36,-0.32,4.5
"2016-04-18 01:32:00",1556755,5.917,52.81,6.81,1.561,5.353,99.85587,-1.067,0.141,85.5,0,109.7,13.35,-0.32,14.8
"2016-04-18 01:32:30",1556756,4.76,56.67,9.64,1.316,4.914,99.85559,-1.068,0.093,85.4,0,109.7,13.35,-0.32,18.7
"2016-04-18 01:33:00",1556757,4.381,45.39,14.68,1.726,5.076,99.85559,-1.068,0.094,85.4,0,109.7,13.36,-0.32,7.4
"2016-04-18 01:33:30",1556758,2.89,32.78,7.541,0.845,3.469,99.85616,-1.066,0.097,85.5,0,109.7,13.36,-0.32,354.8
"2016-04-18 01:34:00",1556759,4.348,32.35,8.59,1.662,5.093,99.85587,-1.067,0.1,85.5,0,109.7,13.36,-0.32,354.4
"2016-04-18 01:34:30",1556760,4.795,41.45,11.38,1.366,5.483,99.85587,-1.067,0.152,85.6,0,109.7,13.36,-0.32,3.5
"2016-04-18 01:35:00",1556761,5.445,37.1,7.41,1.427,5.982,99.85532,-1.068,0.139,85.7,0,109.7,13.36,-0.32,359.1
"2016-04-18 01:35:30",1556762,5.733,40.51,6.679,1.229,5.378,99.85559,-1.068,0.111,85.6,0,109.7,13.36,-0.32,2.5
"2016-04-18 01:36:00",1556763,5.789,40.63,6.121,1.117,4.92,99.84569,-1.093,0.066,85.6,0,109.7,13.36,-0.34,2.6
"2016-04-18 01:36:30",1556764,7.759,43.71,6.905,1.481,5.982,99.84002,-1.107,0.18,85.7,0,109.7,13.36,-0.36,5.7
"2016-04-18 01:37:00",1556765,6.831,47.62,9.16,1.876,6.221,99.83833,-1.112,0.153,85.7,0,109.7,13.36,-0.36,9.6
"2016-04-18 01:37:30",1556766,6.026,47.15,8.23,1.488,6.224,99.83634,-1.117,0.156,85.7,0,109.7,13.36,-0.37,9.2
"2016-04-18 01:38:00",1556767,7.599,51.64,8.08,1.299,6.263,99.83748,-1.114,0.16,85.7,0,109.7,13.36,-0.37,13.6
"2016-04-18 01:38:30",1556768,7.073,47.61,7.02,1.35,6.083,99.83379,-1.123,0.113,85.8,0,109.7,13.36,-0.38,9.6
"2016-04-18 01:39:00",1556769,5.448,41.42,9.28,1.621,5.32,99.82813,-1.138,0.073,85.7,0,109.7,13.36,-0.39,3.4
"2016-04-18 01:39:30",1556770,6.821,48.68,6.86,1.283,6.258,99.8253,-1.145,0.129,85.8,0,109.7,13.36,-0.40,10.7
"2016-04-18 01:40:00",1556771,6.818,49.97,7.256,1.55,5.744,99.82558,-1.144,0.124,85.8,0,109.7,13.36,-0.40,12.0
"2016-04-18 01:40:30",1556772,7.086,49.33,6.631,1.387,6.136,99.82643,-1.142,0.104,85.8,0,109.7,13.36,-0.39,11.3
"2016-04-18 01:41:00",1556773,5.424,41.72,9.81,1.68,6.32,99.82615,-1.143,0.125,85.9,0,109.7,13.36,-0.39,3.7
"2016-04-18 01:41:30",1556774,8.11,49.38,7.217,1.43,5.735,99.82756,-1.139,0.103,85.8,0,109.7,13.36,-0.39,11.4
"2016-04-18 01:42:00",1556775,8.97,48.08,6.809,1.379,5.868,99.82671,-1.141,0.082,85.8,0,109.7,13.36,-0.39,10.1
"2016-04-18 01:42:30",1556776,9.03,51.55,6.35,1.235,6.603,99.82841,-1.137,0.109,85.6,0,109.7,13.36,-0.39,13.5
"2016-04-18 01:43:00",1556777,9.3,51.92,6.34,1.187,6.598,99.8168,-1.167,0.099,85.5,0,109.7,13.36,-0.42,13.9
"2016-04-18 01:43:30",1556778,9.38,51.76,8.15,1.292,6.905,99.8083,-1.188,0.08,85.2,0,109.7,13.36,-0.44,13.8
"2016-04-18 01:44:00",1556779,8.61,55.49,7.275,1.377,6.844,99.80604,-1.194,0.074,85.1,0,109.7,13.36,-0.45,17.5
"2016-04-18 01:44:30",1556780,9.03,51.13,6.347,1.29,6.582,99.80038,-1.208,0.08,85,0,109.7,13.36,-0.46,13.1
"2016-04-18 01:45:00",1556781,9.05,52.14,6.053,1.274,6.731,99.79528,-1.221,0.05,84.8,0,109.6,13.36,-0.47,14.1
"2016-04-18 01:45:30",1556782,9.38,53.53,6.704,1.131,6.852,99.79471,-1.223,0.032,84.5,0,109.7,13.35,-0.48,15.5
"2016-04-18 01:46:00",1556783,9.32,55.89,6.6,1.185,6.81,99.79527,-1.221,0.024,84.2,0,109.7,13.35,-0.47,17.9
"2016-04-18 01:46:30",1556784,9.27,52.92,6.047,1.219,6.608,99.795,-1.222,0.026,83.9,0,109.7,13.35,-0.47,14.9
"2016-04-18 01:47:00",1556785,9.4,52.32,6.104,1.192,7.054,99.79386,-1.225,-0.031,83.6,0,109.7,13.35,-0.48,14.3
"2016-04-18 01:47:30",1556786,8.82,51.02,6.486,1.244,6.878,99.79443,-1.224,-0.019,83.3,0,109.7,13.35,-0.48,13.0
"2016-04-18 01:48:00",1556787,8.99,50.78,6.29,1.192,6.532,99.79414,-1.224,-0.01,83.2,0,109.7,13.35,-0.48,12.8